Location: Stara Lesna
(49.1528°N, 20.2911°E)
Time: 12:42:58
(UTC+02:00)

Cosmos 2344 - Pass Details

Date: 21 September 2019
Orbit: 1260 x 2982 km, 63.3° (Epoch: 13 October)

Event Time Altitude Azimuth Distance (km) Brightness Sun altitude
Exits shadow 04:44:31 22° 262° (W) 2,475 4.5 -16.5°
Maximum altitude 04:49:24 50° 328° (NNW) 1,666 4.1 -15.8°
Drops below altitude 10° 04:58:02 10° 44° (NE) 3,804 7.1 -14.5°
Sets 05:01:36 0° 49° (NE) 5,006 8.0 -13.9°
